Location: Bergnerzell
(49.1816°N, 10.2565°E)
Time: 02:30:33
(UTC+00:00)

Geosat - Pass Details

Date: 23 May 2024
Orbit: 760 x 763 km, 108.1° (Epoch: 13 June)

Event Time Altitude Azimuth Distance (km) Brightness Sun altitude
Rises 02:24:08 0° 150° (SSE) 3,212 7.1 -8.6°
Reaches altitude 10° 02:26:24 10° 151° (SSE) 2,291 6.3 -8.3°
Maximum altitude 02:31:24 84° 239° (WSW) 773 4.0 -7.8°
Drops below altitude 10° 02:36:27 10° 329° (NNW) 2,308 6.7 -7.2°
Sets 02:38:44 0° 331° (NNW) 3,239 7.4 -6.9°
